Voltar ao catálogo

STARLINK-37779

AtivoComunicaçõesSSO
NORAD 69350·PAYLOAD·🇺🇸 United States

Lançado Jun 3, 2026 de Vandenberg Space Force Base

Loading…

Próximas Passagens (próximas 24 horas)

TLE

AtualizadoSource: CelesTrak SupGP

Época: Sep 14, 2026, 15:37 UTC

1 69350C 26122X   26257.65118056 -.00039583  00000+0 -12285-2 0  2576
2 69350  97.2831 286.4125 0001075  99.4612   9.6035 15.33465576    16

Acompanhe STARLINK-37779 em tempo real com AllMySat

Download on the App Store